Location: Unspecified
(28.5265°N, 0.0000°E)
Time: 05:22:05
(UTC+00:00)

NOAA 19 - Visible Passes

Search period start: 04 April 2026 00:00
Search period end: 14 April 2026 00:00
Orbit: 838 x 857 km, 99.0° (Epoch: 29 March)

Date Brightness Start Highest point End Pass type
(mag) Time Alt. Az. Time Alt. Az. Time Alt. Az.
5 Apr 8.1 22:14:51 11° NNW 22:14:51 11° NNW 22:15:01 10° NNW visible
6 Apr 7.9 22:01:50 13° NNW 22:01:50 13° NNW 22:02:22 10° NNW visible
7 Apr 7.7 21:48:49 15° N 21:48:49 15° N 21:49:38 10° N visible
8 Apr 7.6 21:35:48 16° N 21:35:48 16° N 21:36:48 10° N visible
9 Apr 7.5 21:22:48 16° N 21:22:48 16° N 21:23:53 10° N visible
10 Apr 7.4 21:09:47 15° NNE 21:09:47 15° NNE 21:10:52 10° N visible
11 Apr 7.4 20:56:46 14° NNE 20:56:46 14° NNE 20:57:44 10° NNE visible
12 Apr 7.5 20:43:45 12° NNE 20:43:45 12° NNE 20:44:24 10° NNE visible
12 Apr 8.0 22:25:42 13° NNW 22:25:42 13° NNW 22:26:12 10° NNW visible
13 Apr 7.8 22:12:40 15° NNW 22:12:40 15° NNW 22:13:38 10° NNW visible
